Regional Weather Roundup
Issued by NWS

Home | Current Version | Previous Version | Graphics & Text | Print | Product List | Glossary On
Versions: 1 2 3 4 5 6 7 8 9 10 11 12 13 14 15 16 17 18 19 20 21 22 23 24 25 26 27 28 29 30 31 32 33 34 35 36 37 38 39 40 41 42 43 44 45 46 47 48 49 50
000
ASUS43 KLOT 011900
RWRIL

ILLINOIS REGIONAL WEATHER ROUNDUP
NATIONAL WEATHER SERVICE CHICAGO/ROMEOVILLE IL
200 PM CDT SAT AUG 01 2015

NOTE: "FAIR" INDICATES FEW OR NO CLOUDS BELOW 12,000 FEET WITH NO
SIGNIFICANT WEATHER AND/OR OBSTRUCTIONS TO VISIBILITY.

* THESE STATIONS ARE NOT UNDER NWS QUALITY CONTROL. THEY ALSO MAY NOT
  REPORT WEATHER SUCH AS PRECIPITATION OR FOG.

ILZ001-002-007-009-015-016-024-012000-
NORTHWEST ILLINOIS

CITY           SKY/WX    TMP DP  RH WIND       PRES   REMARKS
MOLINE         MOSUNNY   86  60  41 SW14G21   29.97F HX  86
STERLING*      SUNNY     86  64  48 W13       29.93F HX  87
$$

ILZ003-004-008-010-011-017-018-012000-
NORTH CENTRAL ILLINOIS

CITY           SKY/WX    TMP DP  RH WIND       PRES   REMARKS
ROCKFORD       MOSUNNY   85  58  39 W12       29.96F HX  84
$$

ILZ005-006-012>014-019>023-012000-
NORTHEAST ILLINOIS

CITY           SKY/WX    TMP DP  RH WIND       PRES   REMARKS
CHICAGO-OHARE  MOSUNNY   86  56  35 W16G23    29.94F HX  85
CHICAGO-MIDWAY MOSUNNY   88  54  31 W13       29.95F HX  86
AURORA         SUNNY     84  57  39 W13       29.97F HX  83
WAUKEGAN       MOSUNNY   83  59  44 W9        29.93F HX  83
DUPAGE AIRPORT SUNNY     85  58  39 SW10      29.95F HX  84
WHEELING       SUNNY     87  54  32 W14G21    29.95F HX  85
NORTHERLY ISL    N/A     84  52  33 NW9         N/A  HX  82
$$

LMZ740>746-012000-
SOUTHERN LAKE MICHIGAN

STATION/POSITION SKY/WX   TEMP    WIND        PRES    VSBY  WAVE
                          AIR SEA DIR/SP/G                  HT/PER
                          (F)     (DEG/KT/KT) (MB)    (MI)  (FT/S)
HARRISON CRIB              79     280/ 10/ 14   N/A
BURNHAM HARBOR             83     290/ 11/ 14   N/A
CALUMET HARBOR             83     280/  7/ 12   N/A
BURNS HARBOR               78     300/  1/  3 1015.2F
MICHIGAN CITY              76     230/  4/  5   N/A
MICHIGAN CITY 6N           76 74  230/  2/  4   N/A           2/ 4
ST. JOSEPH                 73 74  270/  8/  8   N/A           2/ 4
$$

ILZ025>027-034>036-040-047-049-050-058-095>099-012000-
WEST-CENTRAL ILLINOIS

CITY           SKY/WX    TMP DP  RH WIND       PRES   REMARKS
QUINCY         CLOUDY    84  67  56 S10       30.01F HX  86
MACOMB*        PTSUNNY   84  62  47 SW7       30.03F HX  85
$$

ILZ028>032-037-038-041>044-048-051>054-059>061-012000-
CENTRAL ILLINOIS

CITY           SKY/WX    TMP DP  RH WIND       PRES   REMARKS
DECATUR        PTSUNNY   85  58  39 CALM      30.02F HX  84
PEORIA         PTSUNNY   85  56  37 SW9       30.00F HX  84
SPRINGFIELD    MOSUNNY   87  60  40 VRB6      30.02F HX  87
TAYLORVILLE    NOT AVBL
$$

ILZ033-039-045-046-055>057-062-063-012000-
EAST-CENTRAL ILLINOIS

CITY           SKY/WX    TMP DP  RH WIND       PRES   REMARKS
CHAMPAIGN      PTSUNNY   83  57  41 W6        30.02F HX  82
MATTOON        MOSUNNY   86  54  33 W6        30.02F HX  84
$$

ILZ079-100>102-012000-
SOUTHWEST ILLINOIS

CITY           SKY/WX    TMP DP  RH WIND       PRES   REMARKS
BELLEVILLE     DRIZZLE   86  64  47 SE5       30.01F HX  87
CAHOKIA*       MOSUNNY   88  58  36 CALM      30.02F HX  87
$$

ILZ064>066-069>071-074>076-080>082-084>086-088>090-092>094-012000-
SOUTH-CENTRAL ILLINOIS

CITY           SKY/WX    TMP DP  RH WIND       PRES   REMARKS
CARBONDALE     SUNNY     86  63  45 CALM      30.02F HX  87
MARION         MOSUNNY   88  64  45 SE5       30.03F HX  89
MT. VERNON     MOSUNNY   84  57  39 CALM      30.03F HX  83
SALEM*         PTSUNNY   86  52  30 CALM      30.03F HX  84
$$

ILZ067-068-072-073-078-083-087-091-012000-
SOUTHEAST ILLINOIS

CITY           SKY/WX    TMP DP  RH WIND       PRES   REMARKS
LAWRENCEVILLE  SUNNY     87  57  35 N9        30.02F HX  86
FLORA*         SUNNY     85  55  35 N3        30.03F HX  83
HARRISBURG*    SUNNY     85  62  46 CALM      30.03F HX  85
ROBINSON*      MOSUNNY   83  57  40 NE7       30.03F HX  83
CARMI*         SUNNY     85  53  33 CALM      30.01F HX  83
$$

ABBREVIATIONS USED IN REMARKS
   TC - TEMPERATURE IN CELSIUS
  WCI - WIND CHILL INDEX
   HX - HEAT INDEX
  VSB - VISIBILITY
$$




USA.gov is the U.S. government's official web portal to all federal, state and local government web resources and services.